Location: L�gaud
(45.7115°N, 1.7775°E)
Time: 16:44:26
(UTC+00:00)

Ariane Rocket - Pass Details

Date: 03 March 2021
Orbit: 759 x 771 km, 98.7° (Epoch: 11 April)

Event Time Altitude Azimuth Distance (km) Brightness Sun altitude
Exits shadow 18:42:04 14° 105° (ESE) 2,041 4.6 -11.2°
Maximum altitude 18:45:05 23° 62° (ENE) 1,584 4.2 -11.7°
Drops below altitude 10° 18:49:03 10° 11° (N) 2,322 5.4 -12.4°
Sets 18:51:46 0° 357° (N) 3,252 6.3 -12.9°
